N7TUG Weather Reports


Display with metric or nautical units.
time (UTC)temp
F
wind
direction
speed
MPH
gust
MPH
rain 1hr
in
rain 24hr
in
rain mn
in
humidity
%
barometer
mb
20260507014515 59 153 5.0 8.0 0.00 0.00 0.00 78 1019.9
20260507013515 59 155 4.0 9.0 0.00 0.00 0.00 78 1019.8
20260507012514 58 141 6.0 9.0 0.00 0.00 0.00 79 1020.0
20260507011515 58 149 6.0 9.0 0.00 0.00 0.00 79 1019.9
20260507010514 59 147 5.0 10.0 0.00 0.00 0.00 79 1019.9
20260507005515 58 158 7.0 10.0 0.00 0.00 0.00 79 1020.1
20260507004515 58 144 7.0 10.0 0.00 0.00 0.00 79 1020.0
20260507003515 58 147 6.0 11.0 0.00 0.00 0.00 79 1020.0
20260507002516 58 144 7.0 11.0 0.00 0.00 0.00 78 1020.0
20260507001515 58 160 7.0 10.0 0.00 0.00 0.00 78 1020.0
20260507000515 59 153 4.0 10.0 0.00 0.00 0.00 78 1020.1
20260506235515 58 151 5.0 8.0 0.00 0.00 0.00 78 1020.0
20260506234515 58 148 6.0 8.0 0.00 0.00 0.00 78 1020.1
20260506233515 58 154 5.0 9.0 0.00 0.00 0.00 78 1020.2
20260506232516 59 164 4.0 9.0 0.00 0.00 0.00 77 1020.2
20260506231515 58 167 6.0 10.0 0.00 0.00 0.00 78 1020.2
20260506230535 58 158 5.0 9.0 0.00 0.00 0.00 78 1020.2
20260506225515 58 160 6.0 10.0 0.00 0.00 0.00 78 1020.2
20260506224515 58 155 7.0 10.0 0.00 0.00 0.00 78 1020.2
20260506223515 58 155 6.0 8.0 0.00 0.00 0.00 77 1020.3
20260506222635 58 157 6.0 10.0 0.00 0.00 0.00 77 1020.3
20260506221534 59 179 5.0 10.0 0.00 0.00 0.00 77 1020.4
20260506220515 58 152 6.0 11.0 0.00 0.00 0.00 77 1020.4
20260506215515 58 161 8.0 11.0 0.00 0.00 0.00 76 1020.5
20260506214515 58 157 6.0 11.0 0.00 0.00 0.00 77 1020.4
20260506213515 58 150 8.0 14.0 0.00 0.00 0.00 76 1020.5
20260506212515 58 147 8.0 13.0 0.00 0.00 0.00 76 1020.5
20260506211515 58 160 7.0 10.0 0.00 0.00 0.00 75 1020.5
20260506210515 58 144 6.0 11.0 0.00 0.00 0.00 75 1020.5
20260506205515 59 151 6.0 11.0 0.00 0.00 0.00 76 1020.4
20260506204515 59 166 6.0 11.0 0.00 0.00 0.00 75 1020.3
20260506203514 58 136 7.0 13.0 0.00 0.00 0.00 76 1020.3
20260506202535 58 143 6.0 13.0 0.00 0.00 0.00 76 1020.3
20260506201515 58 166 6.0 10.0 0.00 0.00 0.00 76 1020.2
20260506200515 58 150 6.0 14.0 0.00 0.00 0.00 78 1020.3
20260506195515 59 156 5.0 9.0 0.00 0.00 0.00 77 1020.2
20260506194536 58 167 6.0 9.0 0.00 0.00 0.00 79 1020.2
20260506193515 57 153 5.0 12.0 0.00 0.00 0.00 80 1020.2
20260506192515 58 136 6.0 12.0 0.00 0.00 0.00 79 1020.2
20260506191515 56 135 6.0 10.0 0.00 0.00 0.00 81 1020.2
20260506190516 56 141 7.0 11.0 0.00 0.00 0.00 82 1020.0
20260506185616 56 150 8.0 13.0 0.00 0.00 0.00 81 1020.0
20260506184516 56 128 7.0 13.0 0.00 0.00 0.00 82 1020.0
20260506183514 56 153 7.0 11.0 0.00 0.00 0.00 83 1020.3
20260506182516 56 140 6.0 10.0 0.00 0.00 0.00 83 1020.1
20260506181515 56 145 6.0 10.0 0.00 0.00 0.00 84 1020.1
20260506180515 56 161 5.0 9.0 0.00 0.00 0.00 84 1020.1
20260506175515 56 155 6.0 11.0 0.00 0.00 0.00 86 1019.9
20260506174515 55 142 7.0 11.0 0.00 0.00 0.00 88 1019.6
20260506173516 56 135 5.0 10.0 0.00 0.00 0.00 88 1019.6
20260506172515 55 142 6.0 10.0 0.00 0.00 0.00 90 1019.8
20260506171515 54 122 7.0 11.0 0.00 0.00 0.00 91 1019.9
20260506170515 54 128 7.0 11.0 0.00 0.00 0.00 90 1019.9
20260506165514 55 144 6.0 11.0 0.00 0.00 0.00 88 1019.9
20260506164514 55 138 6.0 12.0 0.00 0.00 0.00 89 1019.7
20260506163515 55 153 5.0 8.0 0.00 0.00 0.00 88 1019.8
20260506162515 55 159 6.0 10.0 0.00 0.00 0.00 89 1019.7
20260506161516 54 123 7.0 12.0 0.00 0.00 0.00 91 1019.4
20260506160515 54 125 8.0 12.0 0.00 0.00 0.00 92 1019.2
20260506155515 54 129 7.0 11.0 0.00 0.00 0.00 93 1019.2
20260506154515 54 132 7.0 10.0 0.00 0.00 0.00 93 1019.2
20260506153535 54 139 5.0 9.0 0.00 0.00 0.00 93 1019.3
20260506152515 54 153 5.0 8.0 0.00 0.00 0.00 93 1019.6
20260506151515 54 152 4.0 8.0 0.00 0.00 0.00 93 1019.6
20260506150515 54 164 4.0 8.0 0.00 0.00 0.00 94 1019.4
20260506145514 53 138 5.0 10.0 0.00 0.00 0.00 95 1019.1
20260506144516 53 140 6.0 9.0 0.00 0.00 0.00 95 1019.2
20260506143515 54 134 5.0 9.0 0.00 0.00 0.00 93 1019.3
20260506142535 54 142 3.0 6.0 0.00 0.00 0.00 92 1019.4
20260506141515 54 156 4.0 7.0 0.00 0.00 0.00 92 1019.3
20260506140516 53 154 5.0 8.0 0.00 0.00 0.00 92 1019.1
20260506135515 54 151 5.0 8.0 0.00 0.00 0.00 90 1019.1
20260506134535 55 174 2.0 6.0 0.00 0.00 0.00 88 1019.2
20260506133516 55 165 4.0 6.0 0.00 0.00 0.00 88 1018.9
20260506132515 55 176 2.0 8.0 0.00 0.00 0.00 88 1019.0
20260506131515 55 159 3.0 7.0 0.00 0.00 0.00 88 1018.8
20260506130555 55 162 4.0 8.0 0.00 0.00 0.00 87 1018.8
20260506125515 54 127 6.0 9.0 0.00 0.00 0.00 89 1018.3
20260506124535 55 160 5.0 9.0 0.00 0.00 0.00 88 1018.6
20260506123515 55 155 5.0 9.0 0.00 0.00 0.00 88 1018.3
20260506122515 55 158 4.0 9.0 0.00 0.00 0.00 87 1018.3
20260506121514 55 150 4.0 8.0 0.00 0.00 0.00 87 1018.3
20260506120515 55 141 4.0 7.0 0.00 0.00 0.00 87 1018.3
20260506115516 55 149 4.0 7.0 0.00 0.00 0.00 86 1018.2
20260506114516 55 142 4.0 7.0 0.00 0.00 0.00 86 1018.1
20260506113515 55 126 4.0 7.0 0.00 0.00 0.00 87 1018.0
20260506112514 55 123 4.0 7.0 0.00 0.00 0.00 87 1017.9
20260506111515 55 129 4.0 7.0 0.00 0.00 0.00 87 1017.9
20260506110516 55 145 4.0 8.0 0.00 0.00 0.00 88 1017.9
20260506105515 55 140 5.0 8.0 0.00 0.00 0.00 87 1017.8
20260506104516 55 162 4.0 6.0 0.00 0.00 0.00 87 1017.8
20260506103515 55 153 3.0 6.0 0.00 0.00 0.00 87 1017.8
20260506102515 55 148 4.0 7.0 0.00 0.00 0.00 86 1017.7
20260506101516 55 151 4.0 7.0 0.00 0.00 0.00 87 1017.6
20260506100535 55 156 5.0 8.0 0.00 0.00 0.00 86 1017.7
20260506095515 55 155 4.0 7.0 0.00 0.00 0.00 86 1017.6
20260506094536 56 136 3.0 7.0 0.00 0.00 0.00 85 1017.3
20260506093515 56 127 2.0 7.0 0.00 0.00 0.00 86 1017.1
20260506092514 55 146 3.0 6.0 0.00 0.00 0.00 86 1017.3
20260506091515 55 147 4.0 7.0 0.00 0.00 0.00 87 1017.2
20260506090555 55 145 5.0 8.0 0.00 0.00 0.00 86 1017.1
20260506085516 56 129 4.0 7.0 0.00 0.00 0.00 86 1017.0
20260506084515 56 124 5.0 7.0 0.00 0.00 0.00 86 1016.9
20260506083515 56 137 4.0 8.0 0.00 0.00 0.00 86 1016.9
20260506082515 56 128 6.0 8.0 0.00 0.00 0.00 85 1016.8
20260506081515 56 134 5.0 8.0 0.00 0.00 0.00 85 1016.7
20260506080515 56 141 5.0 9.0 0.00 0.00 0.00 85 1016.6
20260506072515 57 143 5.0 8.0 0.00 0.00 0.00 83 1016.3
20260506071515 57 150 5.0 8.0 0.00 0.00 0.00 83 1016.3
20260506070515 58 160 5.0 7.0 0.00 0.00 0.00 82 1016.3
20260506062515 59 124 4.0 6.0 0.00 0.00 0.00 81 1016.0
20260506061515 60 107 3.0 4.0 0.00 0.00 0.00 79 1015.9
20260506060535 60 106 1.0 3.0 0.00 0.00 0.00 79 1015.8
20260506050515 62 133 4.0 6.0 0.00 0.00 0.00 78 1015.1
20260506044515 62 106 2.0 4.0 0.00 0.00 0.00 78 1014.9
20260506043515 62 99 1.0 4.0 0.00 0.00 0.00 79 1015.0
20260506042515 62 109 3.0 5.0 0.00 0.00 0.00 79 1014.8
20260506041515 62 113 3.0 4.0 0.00 0.00 0.00 78 1014.7
20260506040515 62 150 3.0 5.0 0.00 0.00 0.00 77 1014.9
20260506035516 63 142 3.0 5.0 0.00 0.00 0.00 77 1014.8
20260506034535 63 143 3.0 4.0 0.00 0.00 0.00 76 1014.6
20260506033515 64 166 2.0 3.0 0.00 0.00 0.00 75 1014.6
20260506032515 65 179 2.0 4.0 0.00 0.00 0.00 74 1014.4
20260506031515 64 141 3.0 5.0 0.00 0.00 0.00 74 1014.4
20260506030515 65 132 3.0 6.0 0.00 0.00 0.00 73 1014.4
20260506025515 65 123 4.0 6.0 0.00 0.00 0.00 73 1014.4
20260506024515 65 129 5.0 7.0 0.00 0.00 0.00 73 1014.4
20260506023534 65 139 5.0 7.0 0.00 0.00 0.00 73 1014.4
20260506022515 65 136 4.0 8.0 0.00 0.00 0.00 72 1014.4
20260506021515 65 141 4.0 8.0 0.00 0.00 0.00 72 1014.4
20260506020515 65 144 5.0 9.0 0.00 0.00 0.00 72 1014.3
20260506015516 65 145 6.0 9.0 0.00 0.00 0.00 72 1014.4